Location: ????????
(55.6189°N, 38.3031°E)
Time: 12:01:17
(UTC+00:00)

SL-16 R/B - Pass Details

Date: 23 February 2020
Orbit: 843 x 847 km, 71.0° (Epoch: 03 April)

Event Time Altitude Azimuth Distance (km) Brightness Sun altitude
Exits shadow 01:39:25 67° 262° (W) 916 2.1 -25.1°
Maximum altitude 01:40:00 73° 307° (NW) 886 2.1 -25.0°
Drops below altitude 10° 01:45:42 10° 33° (NNE) 2,478 5.3 -24.3°
Sets 01:48:10 0° 35° (NE) 3,416 6.2 -23.9°
